Location: Poughquag
(41.6090°N, 73.6820°W)
Time: 03:34:52
(UTC-04:00)

Vanguard 1 Rocket - Pass Details

Date: 07 June 2020
Orbit: 653 x 4224 km, 34.3° (Epoch: 06 July)

Event Time Altitude Azimuth Distance (km) Brightness Sun altitude
Rises 04:20:41 0° 279° (W) 7,236 11.6 -9.7°
Reaches altitude 10° 04:26:37 10° 274° (W) 5,640 11.0 -8.9°
Maximum altitude 04:39:58 41° 211° (SSW) 2,378 9.1 -7.0°
Drops below altitude 10° 04:47:16 10° 144° (SE) 3,116 10.1 -6.0°
Sets 04:49:35 0° 136° (SE) 3,793 10.7 -5.6°
